Location: Boiro
(42.6475°N, 8.8834°W)
Time: 15:22:07
(UTC+02:00)

Explorer 7 - Pass Details

Date: 02 July 2022
Orbit: 482 x 668 km, 50.3° (Epoch: 15 August)

Event Time Altitude Azimuth Distance (km) Brightness Sun altitude
Rises 06:24:18 0° 300° (WNW) 2,937 10.3 -6.4°
Reaches altitude 10° 06:26:42 10° 298° (WNW) 1,999 9.5 -6.1°
Maximum altitude 06:31:16 73° 215° (SW) 630 7.0 -5.4°
Drops below altitude 10° 06:35:33 10° 130° (SE) 1,873 9.7 -4.8°
Sets 06:37:44 0° 129° (SE) 2,735 10.6 -4.5°
